Location: Peralejo
(40.5415°N, 4.1259°W)
Time: 21:55:40
(UTC+00:00)

USA 234 - Pass Details

Date: 18 April 2024
Orbit: 1099 x 1109 km, 123.0° (Epoch: 20 May)

Event Time Altitude Azimuth Distance (km) Brightness Sun altitude
Exits shadow 21:46:01 34° 206° (SSW) 1,743 4.1 -27.7°
Maximum altitude 21:47:26 37° 232° (SW) 1,640 4.1 -27.9°
Drops below altitude 10° 21:53:25 10° 298° (WNW) 2,961 6.3 -28.7°
Sets 21:56:07 0° 307° (NW) 3,921 7.3 -29.0°
